Weather History for Point Salines, Grenada

Change the Weather History Date:

Tuesday, November 8, 2011

  Actual Average Record
Temperature  
Mean Temperature 82 °F -  
Max Temperature 86 °F 84 °F 91 °F (2012)
Min Temperature 78 °F 75 °F 75 °F (1996)
Cooling Degree Days 17    
Growing Degree Days 32 (Base 50)    
Moisture  
Dew Point 78 °F    
Average Humidity 86    
Maximum Humidity 94    
Minimum Humidity 77    
Precipitation  
Precipitation 0.08 in - - ()
Sea Level Pressure  
Sea Level Pressure 29.81 in    
Wind  
Wind Speed 8 mph ()    
Max Wind Speed 14 mph    
Max Gust Speed -    
Visibility 7.1 miles    
Events Rain    
Averages and records for this station are not official NWS values.
T = Trace of Precipitation, MM = Missing Value Source: Averaged Metar Reports

Daily Weather History Graph

Daily Weather History Graph

Search for Another Location

Airport:

Trip Planner

Search our weather history database for the weather conditions in past years. The results will help you decide how hot, cold, wet, or windy it might be!

Date:

Astronomy

Nov. 08, 2011 Rise Set
Actual Time 6:01 AM AST 5:39 PM AST
Civil Twilight 5:39 AM AST 6:01 PM AST
Nautical Twilight 5:14 AM AST 6:27 PM AST
Astronomical Twilight 4:48 AM AST 6:52 PM AST
Moon 4:09 PM AST (11/8) 4:08 AM AST (11/8)
Length of Visible Light 12h 22m
Length of Day
11h 38m
Waxing Gibbous, 96% of the Moon is Illuminated
Nov 8
Waxing Gibbous
Nov 10
Full
Nov 18
Last Quarter
Nov 25
New
Dec 2
First Quarter

Hourly Weather History & Observations

Time (AST) Temp. Heat Index Dew Point Humidity Pressure Visibility Wind Dir Wind Speed Gust Speed Precip Events Conditions
12:00 AM 80.6 °F 87.1 °F 77.0 °F 89% 29.83 in 6.2 mi East 9.2 mph - N/A   Mostly Cloudy
1:00 AM 80.6 °F 87.1 °F 77.0 °F 89% 29.80 in 6.2 mi East 9.2 mph - N/A   Mostly Cloudy
2:00 AM 81 °F - 77 °F 85% 29.80 in 6 mi ESE 9.2 mph - -   Mostly Cloudy
2:00 AM 80.6 °F 87.1 °F 77.0 °F 89% 29.80 in 6.2 mi ESE 9.2 mph - N/A   Mostly Cloudy
3:00 AM 80.6 °F 87.1 °F 77.0 °F 89% 29.77 in 6.2 mi ESE 8.1 mph - N/A   Mostly Cloudy
4:00 AM 80.6 °F 88.1 °F 78.8 °F 94% 29.77 in 6.2 mi SE 6.9 mph - N/A   Mostly Cloudy
5:00 AM 81 °F - 78 °F 88% 29.79 in 9 mi ESE 6.9 mph - -   Widespread Dust
5:00 AM 80.6 °F 88.1 °F 78.8 °F 94% 29.77 in 6.2 mi ESE 6.9 mph - N/A   Mostly Cloudy
6:00 AM 80.6 °F 88.1 °F 78.8 °F 94% 29.80 in 6.2 mi East 9.2 mph - N/A   Scattered Clouds
7:00 AM 82.4 °F 92.4 °F 78.8 °F 89% 29.83 in 6.2 mi ESE 9.2 mph - N/A   Scattered Clouds
8:00 AM 82 °F - 78 °F 85% 29.86 in 7 mi SE 9.2 mph - - Rain Light Rain Showers
8:00 AM 82.4 °F 92.4 °F 78.8 °F 89% 29.86 in 6.2 mi SE 9.2 mph - N/A Rain Light Rain Showers
9:00 AM 86.0 °F 99.3 °F 78.8 °F 79% 29.86 in 6.2 mi SE 11.5 mph - N/A   Partly Cloudy
10:00 AM 86.0 °F 99.3 °F 78.8 °F 79% 29.86 in 6.2 mi ESE 11.5 mph - N/A   Scattered Clouds
11:00 AM 85 °F - 79 °F 77% 29.85 in 14 mi SE 13.8 mph - -   Widespread Dust
11:00 AM 86.0 °F 99.3 °F 78.8 °F 79% 29.83 in 6.2 mi SE 13.8 mph - N/A   Scattered Clouds
12:00 PM 86.0 °F 99.3 °F 78.8 °F 79% 29.80 in 6.2 mi SE 13.8 mph - N/A   Scattered Clouds
1:00 PM 86.0 °F 99.3 °F 78.8 °F 79% 29.80 in 6.2 mi SE 12.7 mph - N/A   Scattered Clouds
2:00 PM 82 °F - 79 °F 87% 29.78 in 9 mi ESE 5.8 mph - - Rain Light Rain Showers
2:00 PM 82.4 °F 92.4 °F 78.8 °F 89% 29.77 in 6.2 mi ESE 5.8 mph - N/A   Scattered Clouds
3:00 PM 86.0 °F 101.9 °F 80.6 °F 84% 29.77 in 6.2 mi ESE 8.1 mph - N/A   Scattered Clouds
4:00 PM 84.2 °F 96.1 °F 78.8 °F 84% 29.77 in 6.2 mi ESE 8.1 mph - N/A   Mostly Cloudy
5:00 PM 83 °F - 78 °F 82% 29.79 in 12 mi ESE 10.4 mph - -   Widespread Dust
5:30 PM 84.2 °F 96.1 °F 78.8 °F 84% 29.77 in 6.2 mi ESE 10.4 mph - N/A   Mostly Cloudy
6:00 PM 82.4 °F 90.9 °F 77.0 °F 84% 29.80 in 6.2 mi ESE 8.1 mph - N/A   Scattered Clouds
7:00 PM 82.4 °F 90.9 °F 77.0 °F 84% 29.80 in 6.2 mi ESE 9.2 mph - N/A   Scattered Clouds
8:00 PM 81 °F - 78 °F 88% 29.83 in 12 mi East 9.2 mph - -   Widespread Dust
8:00 PM 80.6 °F 88.1 °F 78.8 °F 94% 29.83 in 6.2 mi East 9.2 mph - N/A   Scattered Clouds
9:00 PM 82.4 °F 90.9 °F 77.0 °F 84% 29.86 in 6.2 mi East 6.9 mph - N/A   Scattered Clouds
10:00 PM 80.6 °F 87.1 °F 77.0 °F 89% 29.86 in 6.2 mi ESE 6.9 mph - N/A   Scattered Clouds
11:00 PM 80 °F - 78 °F 90% 29.85 in 9 mi ESE 8.1 mph - -   Partly Cloudy
11:00 PM 80.6 °F 87.1 °F 77.0 °F 89% 29.83 in 6.2 mi ESE 8.1 mph - N/A   Scattered Clouds